sat.trackr.live / text

‹ back to catalog

STARLINK-36319

NORAD 67970 · 2026-038K

PAYLOAD ACTIVE UNKNOWN

§ Identity

Operator
Country
US
Launch date
2026-02-25
Launch site
AFWTR
Launch vehicle
Mass (kg)
RCS (m²)

Purposes: comms

External: N2YO · Heavens-Above · Gunter

§ Orbital elements

Epoch: 2026-09-19T18:58:39.976608Z

Period
93.91 min
Inclination
97.2845°
Eccentricity
0.0001608
Mean motion
15.33448100 rev/d
Perigee alt
464.4 km
Apogee alt
466.6 km
Semi-major
6,843.7 km
B*
4.2384e-4
RAAN
271.1248°
Arg perigee
92.2062°
Mean anomaly
267.9365°
Rev number
3,298

§ Raw data

STARLINK-363191 67970U 26038K   26262.79074047  .00013634  00000+0  42384-3 0  99942 67970  97.2845 271.1248 0001608  92.2062 267.9365 15.33448100 32986

JSON: /api/v1/satellites/67970 · /tle

For live sub-satellite position, see the globe view (requires WebGL).

§ Visibility from observer

Set your observer location to see the next 7 days of passes ≥ 10°. The values pass through the URL so the page stays shareable.

No JS? Fill the form by hand. The geolocation button needs JavaScript.